Regional Weather Roundup
Issued by NWS

Home | Current Version | Previous Version | Text Only | Print | Product List | Glossary Off
Versions: 1 2 3 4 5 6 7 8 9 10 11 12 13 14 15 16 17 18 19 20 21 22 23 24 25 26 27 28 29 30 31 32 33 34 35 36 37 38 39 40 41 42 43 44 45 46 47 48 49 50

000
ASUS43 KMKX 270111
RWRWI

WISCONSIN REGIONAL WEATHER ROUNDUP
NATIONAL WEATHER SERVICE MILWAUKEE/SULLIVAN WI
800 PM CDT FRI MAY 26 2017

NOTE: "FAIR" INDICATES FEW OR NO CLOUDS BELOW 12,000 FEET WITH NO
SIGNIFICANT WEATHER AND/OR OBSTRUCTIONS TO VISIBILITY.

WIZ001-002-006>008-014>016-023>028-270200-
NORTHWEST WISCONSIN

CITY           SKY/WX    TMP DP  RH WIND       PRES   REMARKS
SUPERIOR ARPT  NOT AVBL
ASHLAND        PTCLDY    70  54  56 S7        29.73R
HAYWARD        LGT RAIN  69  55  60 S6        29.74S
SIREN          CLOUDY    65  62  89 CALM      29.73S
CUMBERLAND     MOCLDY    66  55  68 S8        29.75R
RICE LAKE      PTCLDY    71  56  58 S8        29.76S
CHETEK         CLOUDY    69  58  68 S3        29.76R
LADYSMITH      CLEAR     68  56  64 S8        29.79R
EAU CLAIRE     CLEAR     71  55  56 S9        29.76R
MENOMONIE      CLEAR     71  56  58 S9        29.75S
NEW RICHMOND   MOCLDY    70  56  61 W7        29.75R
OSCEOLA        PTCLDY    73  58  60 SW6       29.76S
$$

WIZ003>005-009-010-017-018-270200-
NORTH CENTRAL WISCONSIN

CITY           SKY/WX    TMP DP  RH WIND       PRES   REMARKS
MANITOWISH WTR CLOUDY    63  57  81 S6        29.79S
ARBOR VITAE    CLOUDY    64  56  75 SE6       29.80S
WOODRUFF       CLOUDY    64  56  75 SE6       29.80S
RHINELANDER    CLOUDY    64  59  83 SE3       29.82S
EAGLE RIVER    CLOUDY    63  51  65 S3        29.82R
LAND O LAKES   CLOUDY    63  58  86 SE5       29.83S
PHILLIPS       CLOUDY    66  55  66 S9        29.78R
TOMAHAWK       CLOUDY    64  59  84 CALM      29.81S
MEDFORD        CLEAR     65  55  69 S8        29.80S
MERRILL        CLOUDY    68  54  61 S5        29.81S
$$

WIZ029-030-035-036-043>047-270200-
CENTRAL WISCONSIN

CITY           SKY/WX    TMP DP  RH WIND       PRES   REMARKS
WAUSAU         PTCLDY    65  52  62 S5        29.80R
MOSINEE        PTCLDY    64  55  72 S7        29.83R
MARSHFIELD     CLEAR     66  53  63 S8        29.80S
STEVENS POINT  CLEAR     64  50  59 S7        29.83S
WAUPACA        CLOUDY    68  56  65 S6        29.83R
WAUTOMA          N/A     66  54  65 SW8       29.84R
WISC RAPIDS    CLEAR     66  52  60 S7        29.83S
CAMP DOUGLAS   CLEAR     66  54  65 S3        29.82S
$$

WIZ011>013-019>022-031-037>040-048>050-270200-
NORTHEAST WISCONSIN

CITY           SKY/WX    TMP DP  RH WIND       PRES   REMARKS
ANTIGO         CLOUDY    63  56  78 S10       29.83S
SHAWANO        CLOUDY    69  56  63 S3        29.83R
OCONTO         CLOUDY    63  55  73 SE6       29.82F
STURGEON BAY   MOCLDY    60  52  74 CALM      29.85S
GREEN BAY      CLOUDY    65  58  78 SE8       29.83S
MANITOWOC      CLOUDY    55  51  86 SE3       29.85F
APPLETON       MOCLDY    64  52  63 SE8       29.82S
CLINTONVILLE   CLOUDY    66  54  63 S6        29.82S
OSHKOSH        CLOUDY    64  55  72 S7        29.83R
$$

WIZ032>034-041-042-053>061-270200-
SOUTHWEST WISCONSIN

CITY           SKY/WX    TMP DP  RH WIND       PRES   REMARKS
LA CROSSE      CLEAR     69  58  67 S10       29.79S
SPARTA         CLEAR     66  56  71 S6        29.81F
VIROQUA        CLEAR     65  56  73 SW7       29.83S
BOSCOBEL       CLEAR     68  57  68 CALM      29.82S
PRAIRIE DU CHI PTCLDY    66  56  70 CALM      29.82R
PLATTEVILLE    PTCLDY    64  58  81 CALM      29.84F
$$

WIZ056-057-062-063-064-067-068-270200-
SOUTH CENTRAL WISCONSIN

CITY           SKY/WX    TMP DP  RH WIND       PRES   REMARKS
REEDSBURG      PTCLDY    64  53  66 CALM      29.83S
BARABOO/DELLS  CLOUDY    62  52  69 SE5       29.84S
LONE ROCK      CLEAR     64  57  78 E7        29.83R
MINERAL POINT  CLEAR     63  55  77 CALM      29.84S
MADISON        PTCLDY    62  54  74 E3        29.84R
MIDDLETON      PTCLDY    63  55  76 SE5       29.85S
WATERTOWN      CLEAR     61  54  78 CALM      29.84S
MONROE         PTCLDY    59  54  82 NE5       29.84R
JANESVILLE     MOCLDY    63  54  72 E8        29.84R
$$

WIZ051-052-058>065-066-070>072-270200-
SOUTHEAST WISCONSIN

CITY           SKY/WX    TMP DP  RH WIND       PRES   REMARKS
MILWAUKEE      CLOUDY    56  54  93 SE6       29.84F
WAUKESHA       PTCLDY    57  54  88 CALM      29.85S
MILWAUKEE/TIMM PTCLDY    57  54  88 E3        29.84F
RACINE         CLOUDY    55  52  89 E6        29.86S
KENOSHA        CLOUDY    57  54  89 E7        29.84F
FOND DU LAC    CLOUDY    65  53  65 S7        29.84R
SHEBOYGAN      CLOUDY    61  53  75 CALM      29.84S
WEST BEND      MOCLDY    59  54  82 CALM      29.85R
JUNEAU         PTCLDY    61  52  72 S6        29.86S
$$

LSZ147-162-270200-
LAKE SUPERIOR

STATION/POSITION TIME  TEMP    WIND        PRES    WAVE
                       AIR SEA DIR/SP/G            HT/PER
                 (UTC) (F)     (DEG/KT/KT) (MB)    (FT/S)
W MID LAKE BUOY  2350   43 37  100/  8/ 10 1007.7R   0
DEVILS ISLAND    0100   53     100/  5/  6 1006.5R
PORT WING        0040   47     350/  3/  5 1007.1R
SAXON HARBOR     0030   72     200/  6/ 10 1006.8R
$$

LMZ867-665-643>646-270200-
LAKE MICHIGAN

STATION/POSITION TIME  TEMP    WIND        PRES    WAVE
                       AIR SEA DIR/SP/G            HT/PER
                 (UTC) (F)     (DEG/KT/KT) (MB)    (FT/S)
CHAMBERS ISLAND  0030   62      CALM  /  4 1010.2S
N MID LAKE BUOY  0050   45 42  220/  4/  4 1012.0R   0
NORTHPORT PIER   0040   59     160/  2/  4 1010.8R
SISTER BAY       2236   67     180/  9/ 10   N/A
ALGOMA LAKESHORE 0016          220/  3/  6   N/A
KEWAUNEE LAKESHO 0048   53     180/  4/  5 1010.3F
SHEBOYGAN LAKESH 0100   49     130/  2/  3 1010.5S
PORT WASHINGTON  0040   54      CALM  /  3 1011.5F
ATWATER BUOY     0009   48      10/  4/  6 1010.9F
MILWAUKEE LAKESH 0050   49     120/  2/  3   N/A
S MID LAKE BUOY  2350   49 47   30/  6/  8 1010.7F   1
KENOSHA   LAKESH 0100   53      90/  5/  6 1010.5
$$

TC  - TEMPERATURE IN CELSIUS
VSB - VISIBILITY IN STATUTE MILES
WCI - WIND CHILL INDEX
HX  - HEAT INDEX





USA.gov is the U.S. government's official web portal to all federal, state and local government web resources and services.